2012-006B
1 38078U 12006B   12045.34630730  .00062068  00000-0  18138-2 0    45
2 38078  69.4882 236.7669 0775634  43.1211 322.7631 14.04418081   137
2012-006C
1 38079U 12006C   12045.34563505  .00003646  00000-0  10000-3 0    50
2 38079  69.4892 236.7638 0781145  43.1829 322.8098 14.05512214   125
2012-006D
1 38080U 12006D   12045.34576499 -.00000171  00000-0  00000+0 0    43
2 38080  69.4894 236.7650 0779813  43.1749 322.8467 14.05390632   121
2012-006E
1 38081U 12006E   12045.34576237 -.00000170  00000-0  00000+0 0    43
2 38081  69.4853 236.7588 0779430  43.1167 322.8527 14.05284925   120
2012-006F
1 38082U 12006F   12045.34582563 -.00000170  00000-0  00000+0 0    32
2 38082  69.4894 236.7668 0779831  43.1118 322.8601 14.05192436   124
2012-006G
1 38083U 12006G   12045.34579010 -.00000171  00000-0  00000+0 0    48
2 38083  69.4868 236.7618 0780170  43.1324 322.8589 14.05257909   120
2012-006H
1 38084U 12006H   12044.91874586 -.00000170  00000-0  00000+0 0    24
2 38084  69.4837 237.7229 0780017  43.6486 322.3757 14.05172992    63
2012-006J
1 38085U 12006J   12044.91875341 -.00000172  00000-0  00000+0 0    27
2 38085  69.4881 237.7235 0782167  43.6065 322.3957 14.05159457    64

Cheers,
Andreas - VK4HHH
_______________________________________________
Sent via AMSAT-BB@xxxxx.xxx. Opinions expressed are those of the author.
Not an AMSAT-NA member? Join now to support the amateur satellite program!
Subscription settings: http://amsat.org/mailman/listinfo/amsat-bb



------------------------------

Message: 11
Date: Tue, 14 Feb 2012 14:53:41 -0000
From: "Simon Pack" <simon@xxxx.xxxxx.xx.xx>
To: "Mark L. Hammond" <marklhammond@xxxxx.xxx>
Cc: amsat-bb@xxxxx.xxx
Subject: [amsat-bb] Re: VEGA Keps!! (?)
Message-ID: <FFF6929D1B45490D99472CBC48398975@xxxxxx>
Content-Type: text/plain; format=flowed; charset="iso-8859-1";
reply-type=original

Hi Mark,

Masat-1 is certainly not 2012-006A or 2012-006B. They are too far forward or
behind this mornings observed path. Also 2012-006C is 14s ahead of my
measurement.
My vote goes to 2012-0006G for Masat-1 (although there is only 8s between D,
E, F, G, H & J at the moment).
Time will tell once the group spreads out a bit.

73s Simon, G7WIQ

----- Original Message -----
From: "Mark L. Hammond" <marklhammond@xxxxx.xxx>
To: "Simon Pack" <simon@xxxx.xxxxx.xx.xx>
Cc: <amsat-bb@xxxxx.xxx>
Sent: Tuesday, February 14, 2012 1:57 PM
Subject: [amsat-bb] VEGA Keps!! (?)


I think they are here!  They match closely with the pre-launch...

Now the lottery begins!

From:  http://www.celestrak.com/NORAD/elements/tle-new.txt

2012-006A
1 38077U 12006A   12045.34170990  .00075337  33376-5  11441-2 0    63
2 38077  69.5095 236.8571 0799714  45.5517 320.7952 14.12063853   121
2012-006B
1 38078U 12006B   12045.34630730  .00062068  00000-0  18138-2 0    45
2 38078  69.4882 236.7669 0775634  43.1211 322.7631 14.04418081   137
2012-006C
1 38079U 12006C   12045.34563505  .00003646  00000-0  10000-3 0    50
2 38079  69.4892 236.7638 0781145  43.1829 322.8098 14.05512214   125
2012-006D
1 38080U 12006D   12045.34576499 -.00000171  00000-0  00000+0 0    43
2 38080  69.4894 236.7650 0779813  43.1749 322.8467 14.05390632   121
2012-006E
1 38081U 12006E   12045.34576237 -.00000170  00000-0  00000+0 0    43
2 38081  69.4853 236.7588 0779430  43.1167 322.8527 14.05284925   120
2012-006F
1 38082U 12006F   12045.34582563 -.00000170  00000-0  00000+0 0    32
2 38082  69.4894 236.7668 0779831  43.1118 322.8601 14.05192436   124
2012-006G
1 38083U 12006G   12045.34579010 -.00000171  00000-0  00000+0 0    48
2 38083  69.4868 236.7618 0780170  43.1324 322.8589 14.05257909   120
2012-006H
1 38084U 12006H   12044.91874586 -.00000170  00000-0  00000+0 0    24
2 38084  69.4837 237.7229 0780017  43.6486 322.3757 14.05172992    63
2012-006J
1 38085U 12006J   12044.91875341 -.00000172  00000-0  00000+0 0    27
2 38085  69.4881 237.7235 0782167  43.6065 322.3957 14.05159457    64
